User: anonymous   Login
Location: Theydon Bois
(51.6750°N, 0.1050°E)
Time: 14:47:21
(UTC+00:00)
Language:

Cosmos 1452 Rocket - Orbit

View from above orbital plane
View from above orbital plane
View from above satellite
View from above satellite

Ground track
Ground track

The orbit data is extracted from the following two-line orbital elements,

1 13992U 83031B   18019.91758270 +.00000025 +00000-0 +17631-4 0  9996
2 13992 074.0547 329.6342 0006360 259.0406 101.0032 14.36107304819636
Epoch (UTC): 19 January 2018 22:01:19
Eccentricity: 0.0006360
inclination: 74.0547°
perigee height: 767 km
apogee height: 776 km
right ascension of ascending node: 329.6342°
argument of perigee: 259.0406°
revolutions per day: 14.36107304
mean anomaly at epoch: 101.0032°
orbit number at epoch: 81963

The dashed part of the orbit path shows where the satellite is in the earth's shadow,  

DLR